sat.trackr.live / text

‹ back to catalog

STARLINK-34246

NORAD 64769 · 2025-147Q

PAYLOAD ACTIVE UNKNOWN

§ Identity

Operator
Country
US
Launch date
2025-07-08
Launch site
AFETR
Launch vehicle
Mass (kg)
RCS (m²)

Purposes: comms

External: N2YO · Heavens-Above · Gunter

§ Orbital elements

Epoch: 2026-05-24T17:25:04.132992Z

Period
93.85 min
Inclination
53.1601°
Eccentricity
0.0001094
Mean motion
15.34406518 rev/d
Perigee alt
461.9 km
Apogee alt
463.4 km
Semi-major
6,840.8 km
B*
3.8913e-4
RAAN
248.8336°
Arg perigee
82.4052°
Mean anomaly
277.7075°
Rev number
5,040

§ Raw data

STARLINK-342461 64769U 25147Q   26144.72574228  .00012796  00000+0  38913-3 0  99962 64769  53.1601 248.8336 0001094  82.4052 277.7075 15.34406518 50400

JSON: /api/v1/satellites/64769 · /tle

For live sub-satellite position, see the globe view (requires WebGL).

§ Visibility from observer

Set your observer location to see the next 7 days of passes ≥ 10°. The values pass through the URL so the page stays shareable.

No JS? Fill the form by hand. The geolocation button needs JavaScript.